Location: Newark
(51.3318°N, 0.0053°E)
Time: 19:46:38
(UTC+00:00)

STRAND 1 - Pass Details

Date: 01 July 2022
Orbit: 767 x 781 km, 98.4° (Epoch: 09 August)

Event Time Altitude Azimuth Distance (km) Brightness Sun altitude
Rises 21:18:37 0° 3° (N) 3,276 ? -7.2°
Reaches altitude 10° 21:22:11 10° 337° (NNW) 2,340 ? -7.6°
Maximum altitude 21:24:30 13° 310° (NW) 2,117 ? -7.8°
Drops below altitude 10° 21:26:49 10° 283° (WNW) 2,330 ? -8.0°
Sets 21:30:21 0° 258° (WSW) 3,249 ? -8.3°
